Wilmington, OH

4:40 PM EST on December 13, 2017 (GMT -0500)
Airborne

Weather History for KILN - April, 2014

Change the Weather History Date:

Wednesday, April 16, 2014

  Actual Average (KFFO) Record (KFFO)
Temperature  
Mean Temperature 36 °F -  
Max Temperature 48 °F 62 °F 82 °F (2002)
Min Temperature 24 °F 41 °F 23 °F (2014)
Degree Days  
Heating Degree Days 29    
Moisture  
Dew Point 19 °F    
Average Humidity 52    
Maximum Humidity 77    
Minimum Humidity 32    
Precipitation  
Precipitation 0.00 in - - ()
Sea Level Pressure  
Sea Level Pressure 30.41 in    
Wind  
Wind Speed 6 mph (East)    
Max Wind Speed 13 mph    
Max Gust Speed 20 mph    
Visibility 10 miles    
Events      
Averages and records for this station are not official NWS values.
T = Trace of Precipitation, MM = Missing Value Source: NWS Daily Summary

Daily Weather History Graph

Daily Weather History Graph

Search for Another Location

Airport or City:

Trip Planner

Search our weather history database for the weather conditions in past years. The results will help you decide how hot, cold, wet, or windy it might be!

Date:

Astronomy

Apr. 16, 2014 Rise Set
Actual Time 6:56 AM EDT 8:13 PM EDT
Civil Twilight 6:28 AM EDT 8:41 PM EDT
Nautical Twilight 5:55 AM EDT 9:15 PM EDT
Astronomical Twilight 5:20 AM EDT 9:50 PM EDT
Moon 9:56 PM EDT (4/16) 7:43 AM EDT (4/16)
Length of Visible Light 14h 13m
Length of Day
13h 17m
Full, 98% of the Moon is Illuminated
Apr 16
Full
Apr 22
Last Quarter
Apr 29
New
May 6
First Quarter
May 14
Full

Hourly Weather History & Observations

Time (EDT) Temp. Windchill Dew Point Humidity Pressure Visibility Wind Dir Wind Speed Gust Speed Precip Events Conditions
12:54 AM 28.0 °F 21.7 °F 16.0 °F 61% 30.33 in 10.0 mi North 5.8 mph - N/A   Clear
1:54 AM 27.0 °F 21.6 °F 17.1 °F 66% 30.33 in 10.0 mi NNE 4.6 mph - N/A   Clear
2:54 AM 26.1 °F - 17.1 °F 69% 30.35 in 10.0 mi Calm Calm - N/A   Clear
3:54 AM 25.0 °F - 16.0 °F 69% 30.38 in 10.0 mi Calm Calm - N/A   Clear
4:54 AM 25.0 °F - 18.0 °F 75% 30.41 in 10.0 mi Calm Calm - N/A   Clear
5:54 AM 25.0 °F - 15.1 °F 66% 30.43 in 10.0 mi Calm Calm - N/A   Clear
6:54 AM 24.1 °F - 18.0 °F 77% 30.46 in 10.0 mi Calm Calm - N/A   Clear
7:54 AM 27.0 °F 21.6 °F 16.0 °F 63% 30.47 in 10.0 mi East 4.6 mph - N/A   Clear
8:54 AM 30.0 °F 22.4 °F 15.1 °F 54% 30.48 in 10.0 mi East 8.1 mph - N/A   Clear
9:54 AM 33.1 °F 26.1 °F 15.1 °F 48% 30.50 in 10.0 mi East 8.1 mph - N/A   Clear
10:54 AM 35.1 °F 27.4 °F 15.1 °F 44% 30.50 in 10.0 mi East 10.4 mph - N/A   Clear
11:54 AM 37.9 °F 31.5 °F 16.0 °F 41% 30.49 in 10.0 mi East 9.2 mph 17.3 mph N/A   Clear
12:54 PM 39.0 °F 31.8 °F 17.1 °F 41% 30.48 in 10.0 mi ESE 11.5 mph - N/A   Clear
1:54 PM 42.1 °F 36.1 °F 19.0 °F 40% 30.46 in 10.0 mi ESE 10.4 mph 19.6 mph N/A   Clear
2:54 PM 44.1 °F 37.7 °F 18.0 °F 35% 30.43 in 10.0 mi SE 12.7 mph - N/A   Clear
3:54 PM 46.0 °F 40.6 °F 19.0 °F 34% 30.40 in 10.0 mi ESE 11.5 mph 16.1 mph N/A   Clear
4:54 PM 46.9 °F - 18.0 °F 32% 30.38 in 10.0 mi ESE 8.1 mph - N/A   Clear
5:54 PM 48.0 °F - 19.0 °F 32% 30.37 in 10.0 mi ESE 10.4 mph - N/A   Clear
6:54 PM 46.9 °F - 19.9 °F 34% 30.35 in 10.0 mi ESE 11.5 mph - N/A   Clear
7:54 PM 44.1 °F 40.1 °F 24.1 °F 45% 30.34 in 10.0 mi ESE 6.9 mph - N/A   Clear
8:54 PM 41.0 °F 37.1 °F 25.0 °F 53% 30.35 in 10.0 mi East 5.8 mph - N/A   Clear
9:54 PM 39.9 °F 33.9 °F 25.0 °F 55% 30.34 in 10.0 mi East 9.2 mph - N/A   Clear
10:54 PM 39.0 °F 34.0 °F 24.1 °F 55% 30.35 in 10.0 mi East 6.9 mph - N/A   Clear
11:54 PM 37.0 °F 32.4 °F 23.0 °F 57% 30.35 in 10.0 mi East 5.8 mph - N/A   Clear